Location: Klein M�hlingen
(51.9472°N, 11.7453°E)
Time: 09:52:06
(UTC+00:00)

Cosmos 2344 - Pass Details

Date: 09 April 2020
Orbit: 1251 x 2991 km, 63.3° (Epoch: 06 June)

Event Time Altitude Azimuth Distance (km) Brightness Sun altitude
Rises 20:09:19 0° 308° (NW) 4,424 8.1 -18.2°
Reaches altitude 10° 20:11:57 10° 312° (NW) 3,564 7.2 -18.5°
Maximum altitude 20:20:41 64° 34° (NE) 1,900 4.4 -19.5°
Enters shadow 20:28:47 23° 110° (ESE) 3,624 5.4 -20.4°
